sat.trackr.live / text

‹ back to catalog

STARLINK-35866

NORAD 66878 · 2025-283A

PAYLOAD ACTIVE UNKNOWN

§ Identity

Operator
Country
US
Launch date
2025-12-04
Launch site
AFWTR
Launch vehicle
Mass (kg)
RCS (m²)

Purposes: comms

External: N2YO · Heavens-Above · Gunter

§ Orbital elements

Epoch: 2026-09-20T05:17:55.393728Z

Period
93.85 min
Inclination
53.1584°
Eccentricity
0.0001250
Mean motion
15.34413242 rev/d
Perigee alt
461.8 km
Apogee alt
463.5 km
Semi-major
6,840.8 km
B*
1.0228e-3
RAAN
198.7531°
Arg perigee
93.9412°
Mean anomaly
266.1733°
Rev number
4,565

§ Raw data

STARLINK-358661 66878U 25283A   26263.22078002  .00034355  00000+0  10228-2 0  99992 66878  53.1584 198.7531 0001250  93.9412 266.1733 15.34413242 45650

JSON: /api/v1/satellites/66878 · /tle

For live sub-satellite position, see the globe view (requires WebGL).

§ Visibility from observer

Set your observer location to see the next 7 days of passes ≥ 10°. The values pass through the URL so the page stays shareable.

No JS? Fill the form by hand. The geolocation button needs JavaScript.